FW4563 Weather Reports


Display with metric or nautical units.
time (UTC)temp
F
wind
direction
speed
MPH
gust
MPH
rain 1hr
in
rain 24hr
in
rain mn
in
humidity
%
barometer
mb
20220525045606 62 355 0.0 0.0 0.00 0.00 0.00 94 1023.9
20220525045106 62 336 0.0 0.0 0.00 0.00 0.00 95 1023.9
20220525044603 62 341 1.0 1.0 0.00 0.00 0.00 95 1024.0
20220525044102 62 3 0.0 0.0 0.00 0.00 0.00 96 1024.0
20220525043601 62 266 1.0 2.0 0.00 0.00 0.00 96 1024.1
20220525043059 62 108 3.0 6.0 0.00 0.00 0.00 95 1024.0
20220525042558 62 341 1.0 2.0 0.00 0.00 0.00 95 1024.1
20220525042057 62 75 0.0 1.0 0.00 0.00 0.00 95 1023.7
20220525041555 62 9 0.0 0.0 0.00 0.00 0.00 94 1023.7
20220525041055 63 222 1.0 1.0 0.00 0.00 0.00 94 1023.7
20220525040553 63 5 0.0 0.0 0.00 0.00 0.00 94 1023.5
20220525040052 63 281 0.0 1.0 0.00 0.03 0.03 93 1023.6
20220525035550 63 323 1.0 1.0 0.00 0.03 0.03 94 1023.6
20220525035050 63 38 0.0 1.0 0.00 0.03 0.03 93 1023.7
20220525034550 63 279 0.0 1.0 0.00 0.03 0.03 93 1023.7
20220525034050 63 3 0.0 0.0 0.00 0.03 0.03 92 1023.6
20220525033548 63 290 3.0 5.0 0.00 0.03 0.03 93 1023.6
20220525033047 63 76 1.0 1.0 0.00 0.03 0.03 93 1023.7
20220525032546 64 304 2.0 3.0 0.00 0.03 0.03 93 1023.4
20220525032045 64 323 0.0 1.0 0.00 0.03 0.03 93 1023.4
20220525031544 63 170 2.0 3.0 0.00 0.03 0.03 93 1023.2
20220525031042 64 104 1.0 1.0 0.00 0.03 0.03 93 1023.1
20220525030541 64 344 1.0 2.0 0.00 0.03 0.03 93 1023.1
20220525030040 64 345 1.0 2.0 0.00 0.03 0.03 93 1023.2
20220525025540 64 39 1.0 1.0 0.00 0.03 0.03 93 1023.0
20220525025039 64 280 2.0 2.0 0.00 0.03 0.03 93 1023.1
20220525024537 64 353 1.0 1.0 0.00 0.03 0.03 94 1022.9
20220525024036 64 340 0.0 0.0 0.00 0.03 0.03 93 1022.6
20220525023534 64 347 1.0 1.0 0.00 0.03 0.03 93 1023.0
20220525023032 64 288 1.0 1.0 0.00 0.03 0.03 92 1022.9
20220525022531 64 323 0.0 1.0 0.00 0.03 0.03 92 1022.7
20220525022029 64 337 0.0 0.0 0.00 0.03 0.03 92 1022.5
20220525021528 64 54 1.0 1.0 0.00 0.03 0.03 91 1022.6
20220525021028 64 297 0.0 1.0 0.00 0.03 0.03 91 1022.6
20220525020527 64 357 2.0 2.0 0.00 0.03 0.03 91 1022.4
20220525020025 64 340 0.0 0.0 0.00 0.03 0.03 91 1022.3
20220525015524 64 21 0.0 0.0 0.00 0.03 0.03 90 1022.5
20220525015022 64 112 1.0 1.0 0.00 0.03 0.03 90 1022.6
20220525014522 64 358 0.0 0.0 0.00 0.03 0.03 90 1022.3
20220525014020 64 15 2.0 3.0 0.00 0.03 0.03 90 1022.6
20220525013520 64 359 0.0 0.0 0.00 0.03 0.03 90 1022.5
20220525013018 64 219 3.0 5.0 0.00 0.03 0.03 90 1022.4
20220525012517 64 210 2.0 2.0 0.00 0.03 0.03 89 1022.2
20220525012017 64 41 1.0 2.0 0.00 0.03 0.03 89 1022.0
20220525011515 64 32 0.0 1.0 0.00 0.03 0.03 89 1022.2
20220525011013 64 341 1.0 1.0 0.00 0.03 0.03 89 1022.3
20220525010512 64 351 1.0 1.0 0.00 0.03 0.03 88 1022.2
20220525010012 65 349 1.0 1.0 0.00 0.03 0.03 88 1022.1
20220525005510 65 294 0.0 1.0 0.00 0.03 0.03 88 1022.1
20220525005008 64 332 2.0 3.0 0.00 0.03 0.03 88 1022.2
20220525004507 64 353 1.0 1.0 0.00 0.03 0.03 87 1022.0
20220525004005 65 19 2.0 2.0 0.00 0.03 0.03 87 1021.9
20220525003503 65 333 0.0 0.0 0.00 0.03 0.03 87 1022.1
20220525003001 64 355 0.0 1.0 0.00 0.03 0.03 88 1022.1
20220525002500 64 329 2.0 3.0 0.00 0.03 0.03 87 1022.1
20220525001958 65 314 1.0 1.0 0.00 0.03 0.03 87 1022.0
20220525001459 65 230 2.0 2.0 0.00 0.03 0.03 87 1022.1
20220525000958 64 340 0.0 0.0 0.00 0.03 0.03 88 1021.9
20220525000457 64 14 1.0 1.0 0.00 0.03 0.03 88 1022.0
20220524235955 65 19 1.0 2.0 0.00 0.03 0.03 88 1021.7
20220524235451 64 1 0.0 1.0 0.00 0.03 0.03 88 1021.9
20220524234951 64 338 0.0 0.0 0.00 0.03 0.03 88 1021.6
20220524234451 64 309 2.0 2.0 0.00 0.03 0.03 88 1021.8
20220524233950 65 257 2.0 2.0 0.00 0.03 0.03 88 1021.9
20220524233449 64 336 1.0 1.0 0.00 0.03 0.03 88 1021.6
20220524232947 64 295 2.0 3.0 0.00 0.03 0.03 89 1021.6
20220524232446 64 354 1.0 1.0 0.00 0.03 0.03 88 1021.4
20220524231946 64 37 1.0 1.0 0.00 0.03 0.03 89 1021.4
20220524231445 64 14 0.0 1.0 0.00 0.03 0.03 89 1021.4
20220524230945 65 359 1.0 1.0 0.00 0.03 0.03 89 1021.3
20220524230443 65 352 2.0 2.0 0.00 0.03 0.03 88 1021.4
20220524225942 65 86 3.0 3.0 0.00 0.03 0.03 87 1021.3
20220524225441 65 339 0.0 1.0 0.00 0.03 0.03 88 1021.3
20220524224940 65 11 0.0 1.0 0.00 0.03 0.03 88 1021.3
20220524224438 65 282 1.0 1.0 0.00 0.03 0.03 87 1021.1
20220524223937 65 353 2.0 2.0 0.00 0.03 0.03 88 1021.1
20220524223436 65 182 1.0 3.0 0.00 0.03 0.03 88 1021.1
20220524222935 66 6 2.0 2.0 0.00 0.03 0.03 89 1020.8
20220524222431 66 230 2.0 3.0 0.00 0.03 0.03 87 1020.9
20220524221929 67 330 1.0 2.0 0.00 0.03 0.03 86 1021.1
20220524221427 67 342 1.0 2.0 0.00 0.03 0.03 86 1020.9
20220524220926 69 241 2.0 3.0 0.00 0.03 0.03 84 1020.8
20220524220426 69 227 1.0 1.0 0.00 0.03 0.03 84 1020.7
20220524215925 69 356 1.0 1.0 0.00 0.03 0.03 84 1020.4
20220524215423 70 340 1.0 2.0 0.00 0.03 0.03 83 1020.4
20220524214922 70 326 2.0 2.0 0.00 0.03 0.03 82 1020.4
20220524214420 71 188 1.0 2.0 0.00 0.03 0.03 81 1020.2
20220524213920 71 7 1.0 1.0 0.00 0.03 0.03 80 1020.5
20220524213419 72 239 6.0 9.0 0.00 0.03 0.03 79 1020.2
20220524212918 73 342 1.0 2.0 0.00 0.03 0.03 77 1019.9
20220524212417 73 318 1.0 1.0 0.00 0.03 0.03 76 1019.8
20220524211916 73 330 2.0 2.0 0.00 0.03 0.03 77 1019.9
20220524211415 75 235 1.0 2.0 0.00 0.03 0.03 70 1019.8
20220524210913 75 239 3.0 3.0 0.00 0.03 0.03 72 1019.7
20220524210413 75 147 2.0 3.0 0.00 0.03 0.03 71 1019.6
20220524205912 76 274 1.0 2.0 0.00 0.03 0.03 71 1019.6
20220524205411 74 336 2.0 3.0 0.00 0.03 0.03 73 1019.7
20220524204910 75 260 1.0 1.0 0.00 0.03 0.03 71 1019.8
20220524204408 76 325 0.0 1.0 0.00 0.03 0.03 70 1019.5
20220524203908 77 314 3.0 3.0 0.00 0.03 0.03 70 1019.6
20220524203408 75 340 1.0 1.0 0.00 0.03 0.03 71 1019.9
20220524202904 75 247 6.0 8.0 0.00 0.03 0.03 71 1019.5
20220524202402 74 75 1.0 1.0 0.00 0.03 0.03 74 1019.7
20220524201901 73 214 3.0 7.0 0.00 0.03 0.03 75 1019.6
20220524201401 72 61 3.0 5.0 0.00 0.03 0.03 76 1019.8
20220524200859 73 32 1.0 1.0 0.00 0.03 0.03 75 1019.9
20220524200357 73 236 3.0 5.0 0.00 0.03 0.03 76 1019.8
20220524195857 73 237 5.0 7.0 0.00 0.03 0.03 75 1019.8
20220524195357 73 319 1.0 1.0 0.00 0.03 0.03 75 1019.9
20220524194857 73 317 2.0 3.0 0.00 0.03 0.03 77 1019.8
20220524194356 73 35 1.0 1.0 0.00 0.03 0.03 78 1019.8
20220524193854 73 342 2.0 2.0 0.00 0.03 0.03 78 1019.8
20220524193351 73 338 2.0 3.0 0.00 0.03 0.03 78 1019.9
20220524192849 73 224 2.0 3.0 0.00 0.03 0.03 77 1019.8
20220524192349 74 308 3.0 5.0 0.00 0.03 0.03 76 1019.9
20220524191848 75 269 3.0 3.0 0.00 0.03 0.03 75 1019.8
20220524191346 76 0 3.0 5.0 0.00 0.03 0.03 74 1019.8
20220524190845 75 348 1.0 2.0 0.00 0.03 0.03 75 1019.5
20220524190344 75 217 2.0 2.0 0.00 0.03 0.03 77 1019.5
20220524185842 76 57 0.0 1.0 0.00 0.03 0.03 76 1019.5
20220524185341 77 9 1.0 2.0 0.00 0.03 0.03 74 1019.4
20220524184841 77 323 3.0 3.0 0.00 0.03 0.03 74 1019.3
20220524184339 78 65 1.0 2.0 0.00 0.03 0.03 73 1019.3
20220524183837 78 2 0.0 0.0 0.00 0.03 0.03 73 1019.4
20220524183336 79 248 7.0 8.0 0.00 0.03 0.03 73 1019.5
20220524182836 78 244 2.0 2.0 0.00 0.03 0.03 73 1019.3
20220524182335 79 250 5.0 6.0 0.00 0.03 0.03 73 1019.3
20220524181833 80 46 1.0 1.0 0.00 0.03 0.03 72 1019.1
20220524181332 79 264 3.0 6.0 0.00 0.03 0.03 73 1019.1
20220524180832 79 346 0.0 1.0 0.00 0.03 0.03 73 1019.0
20220524180331 79 216 2.0 2.0 0.00 0.03 0.03 72 1019.1
20220524175831 79 332 1.0 1.0 0.00 0.03 0.03 74 1019.2
20220524175330 79 339 1.0 1.0 0.00 0.03 0.03 75 1019.1
20220524174828 78 308 1.0 2.0 0.00 0.03 0.03 77 1019.1
20220524174327 79 292 2.0 3.0 0.00 0.03 0.03 76 1019.2
20220524173826 80 234 3.0 3.0 0.00 0.03 0.03 74 1019.1
20220524173324 80 240 4.0 6.0 0.00 0.03 0.03 73 1019.2
20220524172823 79 263 1.0 2.0 0.00 0.03 0.03 74 1019.2
20220524172323 79 120 3.0 3.0 0.00 0.03 0.03 73 1019.2
20220524171822 78 56 0.0 1.0 0.00 0.03 0.03 76 1019.2
20220524171320 78 255 2.0 2.0 0.00 0.03 0.03 78 1019.2
20220524170818 77 223 1.0 3.0 0.00 0.03 0.03 79 1019.2
20220524170316 77 59 0.0 0.0 0.00 0.03 0.03 81 1019.4
20220524165814 77 247 2.0 2.0 0.00 0.03 0.03 81 1019.5
20220524165313 77 149 1.0 1.0 0.00 0.03 0.03 79 1019.3
20220524164813 77 286 0.0 0.0 0.00 0.03 0.03 81 1019.3
20220524164312 77 303 1.0 1.0 0.00 0.03 0.03 81 1019.5
20220524163811 77 294 1.0 1.0 0.00 0.03 0.03 77 1019.1
20220524163310 79 292 2.0 2.0 0.00 0.03 0.03 75 1019.2
20220524162809 79 152 1.0 2.0 0.00 0.03 0.03 74 1019.1
20220524162307 79 88 1.0 1.0 0.00 0.03 0.03 73 1019.3
20220524161807 80 214 2.0 3.0 0.00 0.03 0.03 73 1019.1
20220524161306 79 94 1.0 2.0 0.00 0.03 0.03 75 1019.5
20220524160804 78 337 1.0 1.0 0.00 0.03 0.03 74 1019.4
20220524160302 78 337 5.0 6.0 0.00 0.03 0.03 76 1019.4
20220524155800 78 257 2.0 2.0 0.00 0.03 0.03 75 1019.1
20220524155258 79 184 4.0 6.0 0.00 0.03 0.03 74 1019.5
20220524154757 78 347 0.0 0.0 0.00 0.03 0.03 76 1019.4
20220524154257 78 149 5.0 7.0 0.00 0.03 0.03 75 1019.5
20220524153757 78 219 1.0 2.0 0.00 0.03 0.03 76 1019.5
20220524153258 76 201 2.0 3.0 0.00 0.03 0.03 78 1019.7
20220524152756 77 316 1.0 2.0 0.00 0.03 0.03 79 1019.7
20220524152255 77 137 2.0 2.0 0.00 0.03 0.03 78 1019.5
20220524151753 78 272 2.0 2.0 0.00 0.03 0.03 78 1019.4
20220524151252 78 261 1.0 2.0 0.00 0.03 0.03 77 1019.7
20220524150750 78 178 3.0 3.0 0.00 0.03 0.03 78 1019.3
20220524150248 78 204 4.0 5.0 0.00 0.03 0.03 77 1019.5
20220524145746 78 209 2.0 3.0 0.00 0.03 0.03 78 1019.2
20220524145244 77 251 3.0 3.0 0.00 0.03 0.03 79 1019.5
20220524144744 77 159 1.0 2.0 0.00 0.03 0.03 79 1019.2
20220524144242 77 1 0.0 1.0 0.00 0.03 0.03 80 1019.2
20220524143740 77 212 1.0 2.0 0.00 0.03 0.03 81 1019.1
20220524143240 76 134 3.0 5.0 0.00 0.03 0.03 81 1019.3
20220524142740 77 3 0.0 1.0 0.00 0.03 0.03 83 1019.4
20220524142239 75 351 1.0 1.0 0.00 0.03 0.03 84 1019.3
20220524141738 74 222 3.0 6.0 0.00 0.03 0.03 85 1019.3
20220524141237 74 93 1.0 2.0 0.00 0.03 0.03 87 1019.2
20220524140737 74 172 1.0 1.0 0.00 0.03 0.03 87 1019.4
20220524140235 75 315 1.0 1.0 0.00 0.03 0.03 87 1019.3
20220524135735 73 303 1.0 1.0 0.00 0.03 0.03 91 1019.1
20220524135233 72 263 1.0 1.0 0.00 0.03 0.03 94 1019.2
20220524134732 71 172 2.0 3.0 0.00 0.03 0.03 93 1019.1
20220524134230 71 81 1.0 1.0 0.00 0.03 0.03 94 1019.3
20220524133726 71 315 0.0 0.0 0.00 0.03 0.03 96 1019.3
20220524133226 71 174 1.0 2.0 0.00 0.03 0.03 95 1019.1
20220524132724 71 24 1.0 1.0 0.00 0.03 0.03 94 1019.2
20220524132224 71 5 1.0 2.0 0.00 0.03 0.03 96 1019.1
20220524131724 70 106 0.0 1.0 0.00 0.03 0.03 96 1019.2
20220524131223 70 279 2.0 2.0 0.00 0.03 0.03 96 1019.0
20220524130721 70 225 3.0 3.0 0.00 0.03 0.03 97 1019.1
20220524130220 70 284 0.0 1.0 0.00 0.03 0.03 98 1019.1
20220524125718 70 352 0.0 0.0 0.00 0.03 0.03 98 1019.3
20220524125216 70 208 2.0 3.0 0.00 0.03 0.03 99 1018.8
20220524124715 70 323 0.0 1.0 0.00 0.03 0.03 99 1018.9
20220524124213 69 201 2.0 2.0 0.00 0.03 0.03 99 1018.9
20220524123710 70 64 2.0 2.0 0.00 0.03 0.03 99 1019.0
20220524123208 70 353 1.0 1.0 0.00 0.03 0.03 99 1018.7
20220524122707 70 347 0.0 1.0 0.00 0.03 0.03 99 1018.7
20220524122206 70 334 0.0 0.0 0.00 0.03 0.03 99 1018.6
20220524121704 70 339 0.0 1.0 0.00 0.03 0.03 99 1018.5
20220524121202 70 331 0.0 0.0 0.00 0.03 0.03 99 1018.5
20220524120700 69 308 0.0 1.0 0.00 0.03 0.03 99 1018.6
20220524120158 69 357 1.0 1.0 0.00 0.03 0.03 99 1018.4
20220524115657 69 275 1.0 1.0 0.00 0.03 0.03 99 1018.6
20220524115156 70 339 0.0 0.0 0.00 0.03 0.03 99 1018.3
20220524114654 69 316 1.0 1.0 0.00 0.03 0.03 99 1018.4
20220524114153 69 280 1.0 1.0 0.00 0.03 0.03 99 1018.4
20220524113651 69 143 1.0 1.0 0.00 0.03 0.03 99 1018.3
20220524113149 69 181 1.0 1.0 0.00 0.03 0.03 99 1018.3
20220524112648 69 35 0.0 0.0 0.00 0.03 0.03 99 1018.1
20220524112147 69 40 0.0 1.0 0.00 0.03 0.03 99 1018.2
20220524111647 69 326 0.0 0.0 0.00 0.03 0.03 99 1018.3
20220524111144 69 19 0.0 0.0 0.00 0.03 0.03 99 1018.1
20220524110643 69 11 0.0 0.0 0.00 0.03 0.03 99 1018.4
20220524110141 69 304 0.0 0.0 0.00 0.03 0.03 99 1018.4
20220524105640 69 6 0.0 0.0 0.00 0.03 0.03 99 1018.2
20220524105140 69 349 0.0 0.0 0.00 0.03 0.03 99 1018.1
20220524104639 69 6 0.0 0.0 0.00 0.03 0.03 99 1018.1
20220524104137 69 306 0.0 0.0 0.00 0.03 0.03 99 1018.0
20220524103636 69 15 0.0 0.0 0.00 0.03 0.03 99 1018.2
20220524103135 69 22 0.0 0.0 0.00 0.03 0.03 99 1018.0
20220524102634 69 163 1.0 2.0 0.00 0.03 0.03 99 1018.3
20220524102134 69 8 0.0 0.0 0.00 0.03 0.03 99 1018.0
20220524101632 68 96 0.0 0.0 0.00 0.03 0.03 99 1018.1
20220524101130 68 9 0.0 0.0 0.00 0.03 0.03 99 1017.7
20220524100629 68 349 0.0 0.0 0.00 0.03 0.03 99 1017.6
20220524100129 68 357 0.0 0.0 0.00 0.03 0.03 99 1018.0
20220524095627 68 314 0.0 0.0 0.00 0.03 0.03 99 1017.9
20220524095126 68 236 1.0 1.0 0.00 0.03 0.03 99 1017.9
20220524094625 68 8 0.0 0.0 0.00 0.03 0.03 99 1017.7
20220524094123 68 337 0.0 0.0 0.00 0.03 0.03 99 1017.7
20220524093622 68 193 2.0 2.0 0.00 0.03 0.03 99 1017.7
20220524093122 68 353 0.0 0.0 0.00 0.03 0.03 99 1017.4
20220524092620 68 73 0.0 1.0 0.00 0.03 0.03 99 1017.8
20220524092119 68 46 0.0 0.0 0.00 0.03 0.03 99 1017.7
20220524091618 68 354 0.0 0.0 0.00 0.03 0.03 99 1017.6
20220524091118 68 7 0.0 1.0 0.00 0.03 0.03 99 1017.6
20220524090617 68 45 0.0 1.0 0.00 0.03 0.03 99 1017.8
20220524090115 68 239 1.0 1.0 0.00 0.03 0.03 99 1017.8
20220524085613 68 305 0.0 0.0 0.00 0.03 0.03 99 1017.9
20220524085112 68 6 0.0 0.0 0.00 0.03 0.03 99 1017.9
20220524084611 68 318 1.0 1.0 0.00 0.03 0.03 99 1018.0
20220524084109 68 354 0.0 0.0 0.00 0.03 0.03 99 1017.8
20220524083607 68 1 0.0 0.0 0.00 0.03 0.03 99 1017.5
20220524083106 68 357 0.0 0.0 0.00 0.03 0.03 99 1017.7
20220524082605 68 15 0.0 0.0 0.00 0.03 0.03 99 1017.6
20220524082103 68 36 0.0 0.0 0.00 0.03 0.03 99 1017.7
20220524081602 68 8 0.0 0.0 0.00 0.03 0.03 99 1017.6
20220524081103 68 4 0.0 0.0 0.00 0.03 0.03 99 1018.0
20220524080601 68 345 0.0 0.0 0.00 0.03 0.03 99 1018.2
20220524080059 68 333 0.0 0.0 0.00 0.03 0.03 99 1018.2
20220524075559 68 26 0.0 0.0 0.00 0.03 0.03 99 1018.1
20220524075058 68 21 0.0 1.0 0.00 0.03 0.03 99 1018.2
20220524074556 68 11 0.0 0.0 0.00 0.03 0.03 99 1018.2
20220524074055 68 3 0.0 0.0 0.00 0.03 0.03 99 1018.1
20220524073553 67 350 0.0 0.0 0.00 0.03 0.03 99 1018.4
20220524073053 67 55 0.0 0.0 0.00 0.03 0.03 99 1018.4
20220524072551 67 3 0.0 0.0 0.00 0.03 0.03 99 1018.3
20220524072050 67 345 0.0 0.0 0.00 0.03 0.03 99 1018.3
20220524071549 67 28 0.0 1.0 0.00 0.03 0.03 99 1018.2
20220524071047 67 308 0.0 0.0 0.00 0.03 0.03 99 1018.4
20220524070545 67 9 0.0 0.0 0.00 0.03 0.03 99 1018.3
20220524070042 67 323 1.0 1.0 0.00 0.03 0.03 99 1018.6
20220524065541 67 25 1.0 1.0 0.00 0.03 0.03 99 1018.3
20220524065041 67 338 0.0 0.0 0.00 0.03 0.03 99 1018.5
20220524064539 67 18 1.0 1.0 0.00 0.03 0.03 99 1018.4
20220524064037 67 202 0.0 0.0 0.00 0.03 0.03 99 1018.5
20220524063536 67 302 0.0 1.0 0.00 0.03 0.03 99 1018.6
20220524063034 67 11 0.0 0.0 0.00 0.03 0.03 99 1018.8
20220524062533 67 46 1.0 1.0 0.00 0.03 0.03 99 1018.6
20220524062031 67 359 0.0 0.0 0.00 0.03 0.03 99 1018.3
20220524061530 67 71 2.0 2.0 0.00 0.03 0.03 99 1018.5
20220524061030 67 56 1.0 1.0 0.00 0.03 0.03 99 1018.3
20220524060529 67 18 0.0 0.0 0.00 0.03 0.03 99 1018.1
20220524060029 67 33 1.0 1.0 0.00 0.03 0.03 99 1018.1
20220524055527 67 56 0.0 0.0 0.00 0.03 0.03 99 1018.3
20220524055027 67 68 1.0 2.0 0.00 0.03 0.03 99 1018.1
20220524054526 67 41 2.0 3.0 0.00 0.03 0.03 99 1018.1
20220524054024 67 51 1.0 1.0 0.00 0.03 0.03 99 1018.1
20220524053522 67 39 3.0 5.0 0.00 0.03 0.03 99 1018.0
20220524053023 67 93 3.0 3.0 0.00 0.03 0.03 99 1017.9
20220524052521 67 65 5.0 6.0 0.00 0.03 0.03 99 1018.1
20220524052021 67 270 0.0 1.0 0.00 0.03 0.03 99 1018.3
20220524051519 67 7 1.0 1.0 0.00 0.03 0.03 99 1018.5
20220524051019 67 52 1.0 1.0 0.00 0.03 0.03 99 1018.6
20220524050517 67 69 1.0 1.0 0.00 0.03 0.03 99 1018.8
20220524050016 67 46 2.0 3.0 0.00 0.03 0.03 99 1018.9